Weather History for Grand Forks, ND

Change the Weather History Date:

Thursday, January 17, 2013

  Actual Average Record
Temperature  
Mean Temperature -16 °C -14 °C  
Max Temperature -12 °C -9 °C 3 °C (1981)
Min Temperature -19 °C -20 °C -38 °C (2005)
Degree Days  
Heating Degree Days 61 59  
Month to date heating degree days 868 995  
Since 1 July heating degree days 4626 4854  
Cooling Degree Days 0 0  
Month to date cooling degree days 0 0  
Year to date cooling degree days 0 0  
Moisture  
Dew Point -19 °C    
Average Humidity 69    
Maximum Humidity 80    
Minimum Humidity 58    
Precipitation  
Precipitation 0.25 mm 0.51 mm 0.81 mm (1996)
Month to date precipitation 0.31 0.32  
Year to date precipitation 0.31 0.32  
Snow  
Snow 0.51 cm 0.76 cm 34.29 cm (1996)
Month to date snowfall 2.5 6.2  
Since 1 July snowfall 17.5 26.1  
Snow Depth 12.70 cm    
Sea Level Pressure  
Sea Level Pressure 1028 hPa    
Wind  
Wind Speed 13 km/h (South)    
Max Wind Speed 29 km/h    
Max Gust Speed 34 km/h    
Visibility 15 kilometers    
Events Snow    
T = Trace of Precipitation, MM = Missing Value Source: NWS Daily Summary

Daily Weather History Graph

Daily Weather History Graph

Search for Another Location

Airport:

Trip Planner

Search our weather history database for the weather conditions in past years. The results will help you decide how hot, cold, wet, or windy it might be!

Date:

Astronomy

Jan. 17, 2013 Rise Set
Actual Time 8:11 AM CST 5:06 PM CST
Civil Twilight 7:36 AM CST 5:41 PM CST
Nautical Twilight 6:58 AM CST 6:19 PM CST
Astronomical Twilight 6:21 AM CST 6:56 PM CST
Moon 10:46 AM CST (1/17) No Moon Set
Length of Visible Light 10h 04m
Length of Day
8h 54m
Waxing Crescent, 38% of the Moon is Illuminated
Jan 17
Waxing Crescent
Jan 18
First Quarter
Jan 26
Full
Feb 3
Last Quarter
Feb 10
New

Hourly Weather History & Observations

Time (CST) Temp. Windchill Dew Point Humidity Pressure Visibility Wind Dir Wind Speed Gust Speed Precip Events Conditions
12:53 AM -18.9 °C -25.5 °C -23.3 °C 69% 1027.0 hPa 16.1 km SSE 9.3 km/h / 2.6 m/s - N/A   Overcast
1:53 AM -18.3 °C -25.6 °C -22.8 °C 69% 1027.7 hPa 16.1 km South 11.1 km/h / 3.1 m/s - 0.0 mm   Overcast
2:22 AM -18.0 °C -26.5 °C -23.0 °C 66% 1024.9 hPa 16.1 km South 14.8 km/h / 4.1 m/s - N/A   Overcast
2:53 AM -18.3 °C -27.4 °C -22.2 °C 72% 1027.4 hPa 16.1 km South 16.7 km/h / 4.6 m/s - N/A   Overcast
3:53 AM -17.8 °C -26.8 °C -21.7 °C 72% 1027.2 hPa 12.9 km South 16.7 km/h / 4.6 m/s - 0.0 mm Snow Light Snow
4:53 AM -17.8 °C -26.8 °C -21.7 °C 72% 1027.4 hPa 9.7 km South 16.7 km/h / 4.6 m/s - 0.0 mm Snow Light Snow
5:44 AM -17.0 °C -26.3 °C -21.0 °C 72% 1024.3 hPa 16.1 km SSW 18.5 km/h / 5.1 m/s - 0.0 mm   Overcast
5:53 AM -17.2 °C -26.1 °C -20.6 °C 75% 1027.2 hPa 16.1 km South 16.7 km/h / 4.6 m/s - 0.0 mm Snow Light Snow
6:53 AM -16.7 °C -24.3 °C -20.0 °C 76% 1027.2 hPa 16.1 km SSW 13.0 km/h / 3.6 m/s - 0.0 mm   Overcast
7:53 AM -17.8 °C -22.2 °C -20.6 °C 79% 1028.1 hPa 16.1 km SW 5.6 km/h / 1.5 m/s - N/A   Scattered Clouds
8:53 AM -15.6 °C -24.1 °C -18.9 °C 76% 1029.2 hPa 16.1 km NW 16.7 km/h / 4.6 m/s - N/A   Scattered Clouds
9:53 AM -14.4 °C -23.0 °C -17.8 °C 76% 1030.5 hPa 16.1 km NW 18.5 km/h / 5.1 m/s - N/A   Mostly Cloudy
10:53 AM -13.9 °C -22.0 °C -18.3 °C 70% 1031.3 hPa 16.1 km NNW 16.7 km/h / 4.6 m/s - N/A   Mostly Cloudy
11:53 AM -13.9 °C -20.9 °C -18.9 °C 67% 1031.4 hPa 16.1 km North 13.0 km/h / 3.6 m/s - N/A   Scattered Clouds
12:53 PM -13.3 °C -18.9 °C -19.4 °C 61% 1030.6 hPa 16.1 km North 9.3 km/h / 2.6 m/s - N/A   Partly Cloudy
1:53 PM -13.3 °C -17.0 °C -19.4 °C 61% 1030.3 hPa 16.1 km North 5.6 km/h / 1.5 m/s - N/A   Scattered Clouds
2:53 PM -12.2 °C - -19.4 °C 56% 1030.1 hPa 16.1 km Calm Calm - N/A   Scattered Clouds
3:53 PM -13.3 °C - -18.9 °C 64% 1029.7 hPa 16.1 km Calm Calm - N/A   Mostly Cloudy
4:53 PM -13.9 °C -18.7 °C -18.3 °C 70% 1029.3 hPa 16.1 km SSW 7.4 km/h / 2.1 m/s - N/A   Mostly Cloudy
5:53 PM -14.4 °C -21.5 °C -19.4 °C 67% 1029.0 hPa 16.1 km SE 13.0 km/h / 3.6 m/s - N/A   Mostly Cloudy
6:53 PM -14.4 °C -22.1 °C -18.9 °C 69% 1028.0 hPa 16.1 km SSE 14.8 km/h / 4.1 m/s - N/A   Mostly Cloudy
7:53 PM -14.4 °C -22.1 °C -18.3 °C 73% 1027.0 hPa 16.1 km SSE 14.8 km/h / 4.1 m/s - N/A   Overcast
8:53 PM -13.9 °C -20.9 °C -17.8 °C 73% 1025.8 hPa 16.1 km South 13.0 km/h / 3.6 m/s - N/A   Overcast
9:53 PM -13.3 °C -21.7 °C -16.7 °C 76% 1024.5 hPa 4.8 km SSE 18.5 km/h / 5.1 m/s - 0.0 mm Snow Light Snow
10:53 PM -13.3 °C -22.1 °C -16.1 °C 80% 1022.9 hPa 4.8 km SSE 20.4 km/h / 5.7 m/s - 0.3 mm Snow Light Snow
11:53 PM -13.3 °C -22.1 °C -15.6 °C 83% 1021.7 hPa 16.1 km SSE 20.4 km/h / 5.7 m/s - 0.5 mm   Overcast